Location: Ingoldesthorpe
(52.8667°N, 0.5167°E)
Time: 22:31:30
(UTC+00:00)

Cosmos 2150 Rocket - Pass Details

Date: 19 May 2025
Orbit: 745 x 804 km, 74.0° (Epoch: 12 June)

Event Time Altitude Azimuth Distance (km) Brightness Sun altitude
Rises 21:31:53 0° 333° (NNW) 3,291 9.4 -10.9°
Reaches altitude 10° 21:34:17 10° 333° (NNW) 2,366 8.1 -11.1°
Maximum altitude 21:39:41 86° 247° (WSW) 808 4.1 -11.5°
Enters shadow 21:44:07 16° 159° (SSE) 1,995 5.5 -11.9°
